sat.trackr.live / text

‹ back to catalog

STARLINK-35877

NORAD 67049 · 2025-294V

PAYLOAD ACTIVE UNKNOWN

§ Identity

Operator
Country
US
Launch date
2025-12-11
Launch site
AFETR
Launch vehicle
Mass (kg)
RCS (m²)

Purposes: comms

External: N2YO · Heavens-Above · Gunter

§ Orbital elements

Epoch: 2026-05-24T18:47:03.788736Z

Period
94.27 min
Inclination
43.0013°
Eccentricity
0.0001718
Mean motion
15.27593817 rev/d
Perigee alt
481.8 km
Apogee alt
484.2 km
Semi-major
6,861.1 km
B*
5.1608e-4
RAAN
328.6029°
Arg perigee
269.0424°
Mean anomaly
91.0231°
Rev number
2,643

§ Raw data

STARLINK-358771 67049U 25294V   26144.78268274  .00013972  00000+0  51608-3 0  99932 67049  43.0013 328.6029 0001718 269.0424  91.0231 15.27593817 26432

JSON: /api/v1/satellites/67049 · /tle

For live sub-satellite position, see the globe view (requires WebGL).

§ Visibility from observer

Set your observer location to see the next 7 days of passes ≥ 10°. The values pass through the URL so the page stays shareable.

No JS? Fill the form by hand. The geolocation button needs JavaScript.